Location: Unspecified
(50.0830°N, 0.0000°E)
Time: 04:28:12
(UTC+00:00)

N. Korean satellite - Visible Passes

Search period start: 15 November 2019 00:00
Search period end: 25 November 2019 00:00
Orbit: 456 x 506 km, 97.2° (Epoch: 14 November)

Date Brightness Start Highest point End Pass type
(mag) Time Alt. Az. Time Alt. Az. Time Alt. Az.
15 Nov 10.2 04:44:36 10° ENE 04:46:00 12° E 04:47:25 10° ESE visible
15 Nov 6.6 06:16:07 10° N 06:19:51 68° WNW 06:23:31 10° SSW visible
15 Nov 6.6 16:55:34 10° SSE 16:59:12 89° ENE 17:02:55 10° NNW visible
16 Nov 7.2 05:50:46 10° NNE 05:54:28 62° E 05:58:07 10° S visible
16 Nov 9.9 18:05:10 10° SW 18:07:32 16° W 18:09:55 10° NW visible
17 Nov 8.6 05:25:37 10° NNE 05:29:00 32° E 05:32:20 10° SSE visible
17 Nov 8.8 17:38:43 10° SSW 17:41:57 29° W 17:45:14 10° NNW visible
18 Nov 9.7 05:00:50 10° NE 05:03:25 18° E 05:05:58 10° SE visible
18 Nov 7.0 06:33:29 10° N 06:37:02 43° WNW 06:40:32 10° SW visible
18 Nov 7.4 17:12:51 10° S 17:16:27 57° W 17:20:07 10° NNW visible
19 Nov 6.6 06:07:58 10° NNE 06:11:42 84° WNW 06:15:23 10° SSW visible
19 Nov 6.6 16:47:25 10° SSE 16:51:03 73° ENE 16:54:46 10° N visible
19 Nov 10.3 18:23:59 10° WSW 18:24:56 11° W 18:25:54 10° WNW visible
20 Nov 7.6 05:42:39 10° NNE 05:46:17 49° E 05:49:51 10° S visible
20 Nov 9.6 17:56:32 10° SW 17:59:17 20° W 18:02:04 10° NW visible
21 Nov 9.0 05:17:35 10° NE 05:20:46 26° E 05:23:54 10° SSE visible
21 Nov 8.4 17:30:19 10° SSW 17:33:43 36° W 17:37:11 10° NNW visible
22 Nov 9.9 04:53:01 10° NE 04:55:09 15° E 04:57:15 10° SE visible
22 Nov 6.7 06:25:15 10° N 06:28:52 52° WNW 06:32:26 10° SSW visible
22 Nov 7.0 17:04:34 10° S 17:08:14 71° WSW 17:11:59 10° NNW visible
23 Nov 6.7 05:59:47 10° NNE 06:03:30 80° E 06:07:10 10° S visible
23 Nov 6.7 16:39:14 10° SSE 16:42:52 59° ENE 16:46:33 10° N visible
23 Nov 10.0 18:14:47 10° WSW 18:16:38 13° W 18:18:30 10° WNW visible
24 Nov 8.1 05:34:31 10° NNE 05:38:03 40° E 05:41:29 10° SSE visible
24 Nov 9.2 17:47:58 10° SSW 17:51:00 24° W 17:54:05 10° NW visible
